[[{"header":{"parameterUnit":"m.s-1","parameterCategory":1,"la1":30.2991,"la2":30.254,"lo1":-89.0895,"lo2":-89.0444,"dy":0.0017,"dx":0.0017,"nx":28,"ny":28,"refTime":"2024-10-01T03:00:00:Z","depth":0,"parameterNumber":2,"parameterNumberName":"U-component_of_WINDS"},"data":[0,0,0,0,0,0,0,0,0,0,0,0,0,0,0,0,0,0,0,0,0,0,0,0,0,0,0,0,0,0,0,0,0,0,0,0,0,0,0,0,0,0,0,0,0,0,0,0,0,0,0,0,0,0,0,0,0,0,-0.166,-0.1661,0,-0.1708,-0.1709,-0.1709,-0.1695,-0.1694,-0.1693,-0.1693,-0.1744,-0.1746,-0.1748,0,0,0,0,0,0,0,0,0,0,0,0,0,-0.1558,-0.156,-0.166,-0.1661,-0.1661,-0.1708,-0.1709,-0.1709,-0.1696,-0.1694,-0.1693,-0.1692,-0.1743,-0.1746,-0.1748,0,0,0,0,0,0,0,0,0,0,0,0,0,-0.1604,-0.1561,-0.166,-0.166,-0.166,-0.1708,-0.1709,-0.1709,-0.1696,-0.1694,-0.1693,-0.1692,-0.1742,-0.1745,-0.1749,-0.1799,0,0,-0.1759,-0.1761,0,0,0,0,0,0,0,0,-0.1601,-0.1608,-0.1659,-0.166,-0.1661,-0.1694,-0.1691,-0.174,-0.1696,-0.1683,-0.1692,-0.1691,-0.1729,-0.1733,-0.1745,-0.1802,-0.1804,-0.1759,-0.1762,-0.1763,-0.1764,0,0,0,0,0,0,0,-0.1598,-0.1605,-0.1679,-0.166,-0.1661,-0.1658,-0.1663,-0.17,-0.1713,-0.1684,-0.1683,-0.1688,-0.1729,-0.1742,-0.1746,-0.1805,-0.1759,-0.1762,-0.1765,-0.1766,-0.1905,-0.1907,0,0,0,0,0,0,-0.1594,-0.1603,-0.1678,-0.168,-0.1627,-0.1661,-0.1667,-0.1685,-0.1713,-0.1716,-0.169,-0.1688,-0.1737,-0.1742,-0.1748,-0.181,-0.1763,-0.1766,-0.1768,-0.1904,-0.1906,-0.1908,0,0,0,0,0,0,-0.1592,-0.1601,-0.1676,-0.1641,-0.1651,-0.1664,-0.1685,-0.1687,-0.17,-0.1717,-0.172,-0.1701,-0.1736,-0.1743,-0.1787,-0.1811,-0.1768,-0.1771,-0.1902,-0.1904,-0.1907,-0.1933,0,0,0,0,0,0,-0.1589,-0.16,-0.162,-0.1642,-0.1653,-0.1713,-0.1687,-0.1689,-0.1706,-0.1704,-0.1729,-0.1731,-0.1735,-0.1782,-0.179,-0.1815,-0.1774,-0.19,-0.1903,-0.1906,-0.193,-0.1936,-0.1942,0,0,0,0,0,-0.1586,-0.1626,-0.1621,-0.163,-0.1677,-0.1715,-0.1721,-0.1724,-0.1708,-0.1728,-0.1738,-0.1731,-0.1807,-0.1786,-0.1796,-0.1822,-0.1898,-0.1902,-0.1906,-0.1928,-0.1935,-0.1941,0,0,0,0,0,0,-0.1607,-0.1629,-0.1623,-0.1672,-0.1691,-0.1712,-0.1737,-0.1732,-0.1757,-0.1754,-0.1757,-0.1763,-0.1807,-0.1819,-0.1795,-0.1873,-0.185,-0.1856,-0.1864,-0.1871,-0.1877,-0.1874,-0.1776,0,0,0,0,0,-0.1617,-0.1645,-0.1663,-0.1704,-0.1714,-0.1724,-0.174,-0.1741,-0.1762,-0.177,-0.1784,-0.1805,-0.1834,-0.1853,-0.188,-0.1931,-0.1937,-0.1954,-0.196,-0.1964,-0.197,-0.1998,-0.2006,-0.192,-0.192,-0.192,0,0,-0.1638,-0.1654,-0.1672,-0.1708,-0.1724,-0.1753,-0.1731,-0.1763,-0.1786,-0.1775,-0.1817,-0.1828,-0.1852,-0.1899,-0.1921,-0.191,-0.1994,-0.1969,-0.1972,-0.1976,-0.2002,-0.2011,-0.2018,-0.1922,-0.1922,-0.1921,0,0,-0.1693,-0.1707,-0.1743,-0.1759,-0.1782,-0.1788,-0.1796,-0.1818,-0.1825,-0.1866,-0.1859,-0.1885,-0.1935,-0.1952,-0.1967,-0.2027,-0.2021,-0.2035,-0.2066,-0.2093,-0.21,-0.2106,-0.2128,-0.2136,-0.204,-0.204,-0.2041,0,-0.1718,-0.1762,-0.1762,-0.1796,-0.1812,-0.1803,-0.1839,-0.1854,-0.1885,-0.1897,-0.1884,-0.1945,-0.1961,-0.2012,-0.2027,-0.2039,-0.2049,-0.2033,-0.2098,-0.2105,-0.211,-0.2131,-0.214,-0.2042,-0.2042,-0.2042,-0.2042,0,-0.1791,-0.1821,-0.1847,-0.1877,-0.1896,-0.1931,-0.1937,-0.1957,-0.1955,-0.1963,-0.2005,-0.2023,-0.2053,-0.2065,-0.2064,-0.2117,-0.2109,-0.2097,-0.2075,-0.212,-0.214,-0.2148,-0.2045,-0.2044,-0.2044,-0.2043,0,0,-0.1862,-0.189,-0.19,-0.1913,-0.1937,-0.1961,-0.1995,-0.2024,-0.2041,-0.2063,-0.2092,-0.2133,-0.2122,-0.2139,-0.214,-0.2163,-0.221,-0.2149,-0.2149,-0.216,-0.227,-0.228,-0.2289,-0.2206,-0.2207,-0.2208,-0.2268,0,-0.192,-0.1979,-0.1981,-0.2036,-0.2064,-0.2055,-0.2084,-0.2102,-0.211,-0.2136,-0.2144,-0.2173,-0.2156,-0.2166,-0.2189,-0.22,-0.2233,-0.2195,-0.2234,-0.2235,-0.223,-0.2299,-0.231,-0.2366,-0.2276,-0.2277,-0.2278,0,-0.1996,-0.2019,-0.2076,-0.2096,-0.2108,-0.2134,-0.2161,-0.2185,-0.2205,-0.2209,-0.2228,-0.2225,-0.226,-0.2235,-0.2283,-0.2258,-0.2273,-0.2281,-0.2283,-0.2288,-0.2261,-0.2307,-0.2383,-0.2392,-0.229,-0.2289,-0.2288,0,-0.2043,-0.2088,-0.2129,-0.214,-0.2164,-0.2183,-0.2193,-0.2212,-0.2229,-0.2252,-0.2264,-0.2291,-0.2306,-0.2327,-0.2332,-0.2313,-0.238,-0.2356,-0.2385,-0.2385,-0.2402,-0.2401,-0.2482,-0.2409,-0.2409,-0.2409,-0.2409,0,-0.2109,-0.2145,-0.215,-0.2175,-0.2215,-0.2216,-0.2255,-0.2265,-0.2281,-0.2308,-0.2301,-0.2326,-0.233,-0.2356,-0.236,-0.24,-0.2406,-0.2411,-0.2412,-0.2413,-0.2412,-0.2424,-0.2421,-0.2411,-0.2411,-0.241,-0.241,0,-0.217,-0.2175,-0.2218,-0.2236,-0.2242,-0.227,-0.2286,-0.231,-0.2316,-0.235,-0.2358,-0.2368,-0.2399,-0.2404,-0.2441,-0.2443,-0.2491,-0.2487,-0.2484,-0.2484,-0.2514,-0.2511,-0.2607,-0.262,-0.2537,-0.2538,-0.2538,0,-0.2212,-0.2239,-0.226,-0.2277,-0.2288,-0.2316,-0.2333,-0.2334,-0.2353,-0.2377,-0.2399,-0.2428,-0.2452,-0.2501,-0.2512,-0.254,-0.2537,-0.2569,-0.2542,-0.2541,-0.2539,-0.2538,-0.2541,-0.2575,-0.2576,-0.2576,-0.2577,0,-0.2286,-0.2287,-0.2312,-0.2338,-0.2359,-0.2379,-0.2399,-0.2413,-0.2417,-0.2438,-0.2469,-0.2487,-0.2523,-0.2553,-0.258,-0.2592,-0.2586,-0.2585,-0.2593,-0.2595,-0.2593,-0.2596,-0.25,-0.2583,-0.2583,-0.2582,-0.2582,-0.2582,-0.234,-0.2364,-0.2382,-0.241,-0.2424,-0.2442,-0.2466,-0.2474,-0.25,-0.2529,-0.2528,-0.2562,-0.2581,-0.2616,-0.2629,-0.2656,-0.2646,-0.2658,-0.2662,-0.2665,-0.2668,-0.2587,-0.2661,-0.2661,-0.2661,-0.266,-0.266,0,-0.2415,-0.2426,-0.2451,-0.2478,-0.25,-0.2491,-0.2511,-0.2531,-0.256,-0.2578,-0.2601,-0.2637,-0.2665,-0.2677,-0.2705,-0.2725,-0.2722,-0.2732,-0.2731,-0.2734,-0.2675,-0.2665,-0.2733,-0.2733,-0.2733,-0.2733,-0.2733,-0.2733,-0.2457,-0.2497,-0.2499,-0.2546,-0.2557,-0.259,-0.2602,-0.2619,-0.2633,-0.2673,-0.2696,-0.2703,-0.2719,-0.2748,-0.2774,-0.2776,-0.2788,-0.2799,-0.2801,-0.2746,-0.2738,-0.2731,-0.2722,-0.2801,-0.2801,-0.2858,-0.2858,-0.2859]},{"header":{"parameterUnit":"m.s-1","parameterCategory":1,"la1":30.2991,"la2":30.254,"lo1":-89.0895,"lo2":-89.0444,"dy":0.0017,"dx":0.0017,"nx":28,"ny":28,"refTime":"2024-10-01T03:00:00:Z","depth":0,"parameterNumber":3,"parameterNumberName":"V-component_of_WINDS"},"data":[0,0,0,0,0,0,0,0,0,0,0,0,0,0,0,0,0,0,0,0,0,0,0,0,0,0,0,0,0,0,0,0,0,0,0,0,0,0,0,0,0,0,0,0,0,0,0,0,0,0,0,0,0,0,0,0,0,0,-3.7202,-3.7203,0,-3.7309,-3.7311,-3.7312,-3.7279,-3.7277,-3.7275,-3.7273,-3.7379,-3.7383,-3.7388,0,0,0,0,0,0,0,0,0,0,0,0,0,-3.6964,-3.6969,-3.7202,-3.7203,-3.7204,-3.7309,-3.7311,-3.7312,-3.728,-3.7277,-3.7274,-3.7272,-3.7377,-3.7383,-3.7389,0,0,0,0,0,0,0,0,0,0,0,0,0,-3.7069,-3.697,-3.7201,-3.7201,-3.7202,-3.7309,-3.7311,-3.7313,-3.728,-3.7277,-3.7273,-3.727,-3.7375,-3.7382,-3.739,-3.7502,0,0,-3.7412,-3.7415,0,0,0,0,0,0,0,0,-3.7063,-3.7078,-3.72,-3.7201,-3.7202,-3.7278,-3.7266,-3.7376,-3.7281,-3.725,-3.7272,-3.7269,-3.7347,-3.7357,-3.7384,-3.7507,-3.7512,-3.7413,-3.7417,-3.742,-3.7423,0,0,0,0,0,0,0,-3.7056,-3.7073,-3.7244,-3.7201,-3.7203,-3.7194,-3.7205,-3.7287,-3.7316,-3.7253,-3.7251,-3.7264,-3.7348,-3.7377,-3.7387,-3.7514,-3.7413,-3.7419,-3.7424,-3.7427,-3.7735,-3.7738,0,0,0,0,0,0,-3.7048,-3.7067,-3.7241,-3.7247,-3.7123,-3.7201,-3.7213,-3.7257,-3.7315,-3.7321,-3.7267,-3.7262,-3.7366,-3.7378,-3.739,-3.7527,-3.742,-3.7427,-3.7432,-3.7731,-3.7736,-3.774,0,0,0,0,0,0,-3.7043,-3.7064,-3.7236,-3.7157,-3.7178,-3.7209,-3.7257,-3.7261,-3.729,-3.7326,-3.7331,-3.7292,-3.7364,-3.738,-3.7475,-3.753,-3.7431,-3.7437,-3.7727,-3.7733,-3.7738,-3.78,0,0,0,0,0,0,-3.7036,-3.7062,-3.7106,-3.7158,-3.7182,-3.7321,-3.7261,-3.7265,-3.7304,-3.7299,-3.7351,-3.7356,-3.7363,-3.7464,-3.7483,-3.7538,-3.7443,-3.7722,-3.7729,-3.7736,-3.7794,-3.7807,-3.7819,0,0,0,0,0,-3.7028,-3.7119,-3.7109,-3.713,-3.7238,-3.7324,-3.7338,-3.7345,-3.7308,-3.7352,-3.7375,-3.7355,-3.7521,-3.7474,-3.7495,-3.7553,-3.7718,-3.7727,-3.7735,-3.7788,-3.7805,-3.7819,0,0,0,0,0,0,-3.7071,-3.7125,-3.7115,-3.7225,-3.7271,-3.7318,-3.7374,-3.7362,-3.7418,-3.741,-3.7415,-3.7427,-3.7525,-3.7548,-3.7496,-3.7666,-3.7614,-3.7627,-3.7647,-3.7664,-3.7676,-3.7668,-3.7449,0,0,0,0,0,-3.7094,-3.716,-3.7203,-3.7296,-3.732,-3.7343,-3.7381,-3.7382,-3.7429,-3.7447,-3.7477,-3.7522,-3.7584,-3.7625,-3.7684,-3.7797,-3.7807,-3.7847,-3.786,-3.787,-3.7881,-3.7943,-3.7961,-3.7768,-3.7768,-3.7767,0,0,-3.714,-3.7178,-3.722,-3.7306,-3.7341,-3.7409,-3.736,-3.7433,-3.7483,-3.7458,-3.755,-3.7574,-3.7624,-3.7729,-3.7776,-3.7751,-3.7937,-3.7881,-3.7889,-3.7895,-3.7954,-3.7972,-3.7988,-3.7773,-3.7772,-3.7771,0,0,-3.7261,-3.7296,-3.7378,-3.7415,-3.7469,-3.7484,-3.7504,-3.7554,-3.7569,-3.7663,-3.7645,-3.7704,-3.7811,-3.7848,-3.788,-3.8015,-3.7999,-3.8034,-3.8102,-3.8162,-3.8177,-3.819,-3.8239,-3.8256,-3.8045,-3.8045,-3.8045,0,-3.7312,-3.7414,-3.7421,-3.7497,-3.7535,-3.7517,-3.7599,-3.7634,-3.7705,-3.7731,-3.7702,-3.7837,-3.787,-3.7983,-3.8016,-3.8043,-3.8065,-3.8028,-3.8174,-3.8188,-3.8201,-3.8247,-3.8265,-3.8049,-3.8049,-3.8049,-3.8048,0,-3.7474,-3.7546,-3.7605,-3.7676,-3.772,-3.7799,-3.7817,-3.7861,-3.7859,-3.7877,-3.7972,-3.801,-3.8077,-3.8104,-3.8101,-3.8217,-3.82,-3.8173,-3.8121,-3.8223,-3.8267,-3.8284,-3.8055,-3.8054,-3.8053,-3.8052,0,0,-3.7624,-3.7699,-3.772,-3.7752,-3.7811,-3.7866,-3.7943,-3.8011,-3.8049,-3.8098,-3.8163,-3.8254,-3.823,-3.8267,-3.8269,-3.8321,-3.8426,-3.8288,-3.8289,-3.8312,-3.8556,-3.8576,-3.8597,-3.8415,-3.8419,-3.8421,-3.8552,0,-3.775,-3.7888,-3.7897,-3.8021,-3.8087,-3.8071,-3.8138,-3.8181,-3.82,-3.8258,-3.8278,-3.8343,-3.8306,-3.8328,-3.838,-3.8403,-3.8475,-3.8393,-3.8475,-3.8478,-3.8464,-3.8619,-3.8641,-3.8763,-3.8569,-3.8572,-3.8574,0,-3.7915,-3.7971,-3.8103,-3.8153,-3.8181,-3.8242,-3.8304,-3.836,-3.8408,-3.8418,-3.846,-3.8455,-3.8533,-3.8479,-3.8586,-3.8531,-3.8564,-3.8581,-3.8585,-3.8593,-3.8532,-3.8632,-3.8801,-3.882,-3.8601,-3.8598,-3.8597,0,-3.8012,-3.812,-3.8213,-3.8241,-3.8302,-3.8345,-3.8372,-3.8417,-3.8457,-3.8511,-3.8537,-3.8599,-3.8633,-3.868,-3.8691,-3.8651,-3.8799,-3.8746,-3.8809,-3.8809,-3.8841,-3.8839,-3.9019,-3.8863,-3.8862,-3.8862,-3.8862,0,-3.8151,-3.8232,-3.8258,-3.8315,-3.8405,-3.8414,-3.8503,-3.8527,-3.8567,-3.8628,-3.8617,-3.8674,-3.8685,-3.8744,-3.8752,-3.8841,-3.8856,-3.8865,-3.8867,-3.8867,-3.8866,-3.8889,-3.8881,-3.8867,-3.8866,-3.8865,-3.8864,0,-3.8275,-3.8295,-3.8396,-3.8446,-3.846,-3.8525,-3.8567,-3.8621,-3.8639,-3.8716,-3.8735,-3.8762,-3.8831,-3.8847,-3.8928,-3.8934,-3.9039,-3.9032,-3.9023,-3.9023,-3.9086,-3.908,-3.9287,-3.9315,-3.914,-3.9142,-3.9143,0,-3.8363,-3.8425,-3.8483,-3.8524,-3.8553,-3.8619,-3.866,-3.8671,-3.8714,-3.8774,-3.8821,-3.8889,-3.8944,-3.9055,-3.9082,-3.9144,-3.9138,-3.9207,-3.9148,-3.9146,-3.914,-3.9137,-3.9143,-3.9218,-3.922,-3.9222,-3.9223,0,-3.8517,-3.8524,-3.8585,-3.865,-3.87,-3.8751,-3.8799,-3.8833,-3.885,-3.8899,-3.897,-3.9013,-3.9097,-3.9165,-3.9228,-3.9254,-3.9242,-3.9241,-3.9259,-3.926,-3.9253,-3.9259,-3.9055,-3.9237,-3.9235,-3.9234,-3.9233,-3.9233,-3.8626,-3.8681,-3.873,-3.8798,-3.8836,-3.8882,-3.8936,-3.8961,-3.9022,-3.9092,-3.9094,-3.9172,-3.9219,-3.9302,-3.9332,-3.9393,-3.9371,-3.9397,-3.9404,-3.941,-3.9417,-3.9243,-3.9404,-3.9403,-3.9403,-3.9403,-3.9402,0,-3.878,-3.8811,-3.8874,-3.8943,-3.8997,-3.8981,-3.9034,-3.908,-3.9149,-3.9194,-3.9249,-3.9332,-3.9397,-3.9429,-3.9494,-3.9536,-3.9532,-3.9553,-3.955,-3.9557,-3.9432,-3.941,-3.9555,-3.9555,-3.9555,-3.9555,-3.9555,-3.9555,-3.8866,-3.8959,-3.8972,-3.9083,-3.9114,-3.9191,-3.9223,-3.9265,-3.9301,-3.9394,-3.9449,-3.947,-3.951,-3.9578,-3.9637,-3.9645,-3.9669,-3.9693,-3.9698,-3.9581,-3.9565,-3.955,-3.953,-3.9698,-3.9699,-3.9818,-3.9819,-3.982]}]]